Regional Weather Roundup
Issued by NWS

Home | Current Version | Previous Version | Text Only | Print | Product List | Glossary On
Versions: 1 2 3 4 5 6 7 8 9 10 11 12 13 14 15 16 17 18 19 20 21 22 23 24 25 26 27 28 29 30 31 32 33 34 35 36 37 38 39 40 41 42 43 44 45 46 47 48 49 50
000
ASUS46 KLOX 070212
RWRCA

SOUTHERN CALIFORNIA WEATHER ROUNDUP
NATIONAL WEATHER SERVICE OXNARD CALIFORNIA
600 PM PST FRI MAR 06 2015

NOTE: "FAIR" INDICATES FEW OR NO CLOUDS BELOW 12,000 FEET WITH NO
SIGNIFICANT WEATHER AND/OR OBSTRUCTIONS TO VISIBILITY.

  -  STATIONS PRECEEDED BY AN ASTERISK (*) ARE NOT NWS OR FAA
     STATIONS AND ARE NOT SUBJECT TO NWS AND FAA QUALITY CONTROL.

CAZ041-042-087-070300-
LA AND ORANGE COUNTY COASTAL AREAS


CITY           SKY/WX    TMP DP  RH WIND       PRES   REMARKS
L.A. DOWNTOWN  CLEAR     75  33  21 CALM      29.98S
L.A. AIRPORT   CLEAR     70  45  40 CALM      29.98S
LONG BEACH     CLEAR     76  28  17 NW7       29.97S

CITY           SKY/WX    TMP DP  RH WIND       PRES   REMARKS
AVALON           N/A     70 N/A N/A MISG        N/A
FULLERTON      CLEAR     78  24  13 W5        29.97R
*GETTY CENTER    N/A    N/A N/A N/A N13G20      N/A
HAWTHORNE      CLEAR     75  42  30 W3        29.98F
*LEO CARRILLO    N/A     76  18  11 NW3G21      N/A
*LOS ALAMITOS  CLEAR     74  46  36 SE5       29.97R
*REDONDO BEACH   N/A     69  47  43 CALM      29.99S
SANTA ANA      CLEAR     76  31  19 SW3       29.98R
STA MONICA APT CLEAR     74  45  35 CALM      29.98F
*STA MON PIER    N/A     66  56  71 SW3       29.97S
TORRANCE       CLEAR     72  36  26 NW7       29.98F
*UCLA            N/A     73  21  14 N7        29.97R

$$

CAZ547-548-048-070300-
LA COUNTY VALLEYS AND INLAND EMPIRE


CITY           SKY/WX    TMP DP  RH WIND       PRES   REMARKS
BURBANK        CLEAR     78  15   9 NE15      30.00S
VAN NUYS       CLEAR     76  17  11 NE13G25   30.01S

CITY           SKY/WX    TMP DP  RH WIND       PRES   REMARKS
CORONA AIRPORT CLEAR     75   9   8 NE8G18    30.00R
*CHATSWORTH      N/A     76  22  13 NE8       30.01R
CHINO          CLEAR     76  13   9 NE15      30.00R
MARCH AFB      CLEAR     71  11  10 NE10      30.02S
*NORTHRIDGE      N/A     75  12   9 VRB7G17     N/A
ONTARIO        CLEAR     75  10   8 NE14G25   29.99F
*PASADENA        N/A     75  34  22 CALM        N/A
POMONA         CLEAR     75  16  10 CALM      30.03R
RIVERSIDE      CLEAR     76   9   7 N8        30.01R
SAN BERNARDINO CLEAR    N/A N/A N/A NW5       30.03R
*SAN GABRIEL     N/A     80  24  13 CALM      29.93S
*SAN RAFAEL HI   N/A     71  -3   5 SW2G17      N/A
*SAUGUS          N/A     74  20  13 NE15G35     N/A
*WHITEMAN AP   CLEAR     75  16  10 N12G25    30.04F
*WHITTIER HILL   N/A     72  26  18 N7          N/A
*WOODLAND HILL   N/A     75  18  11 VRB6        N/A

$$

CAZ054-055-070300-
LA AND SAN BERNARDINO COUNTY MOUNTAINS


CITY           SKY/WX    TMP DP  RH WIND       PRES   REMARKS
*BIG BEAR AIRP CLEAR     43  10  26 E7        30.26S
*CHILAO          N/A     53   5  14 N28         N/A
MT WILSON NWS    N/A     50   9  18 CALM        N/A
SANDBERG       CLEAR     60  12  15 E24G32    30.17S
*WARM SPRINGS    N/A     59  14  17 NE22G37     N/A

$$

CAZ028-029-059-060-099-070300-
ANTELOPE VALLEY AND SURROUNDING AREAS


CITY           SKY/WX    TMP DP  RH WIND       PRES   REMARKS
LANCASTER      CLEAR     62  20  19 NE7       30.14R
PALMDALE       CLEAR     62  18  18 E10       30.14S
*POPPY PARK      N/A     61  19  19 NE8G20      N/A

CITY           SKY/WX    TMP DP  RH WIND       PRES   REMARKS
29 PALMS       CLEAR     66  19  16 NW7       30.17S
BARSTOW/DAGGET CLEAR     67  17  14 NE3       30.12F
BISHOP         CLEAR     61   0   8 S7        30.21S
MOJAVE         FAIR      63  27  25 CALM      30.16S
NEEDLES        CLEAR     71  19  14 N8        30.05R
VICTORVILLE    CLEAR     63  12  14 E7        30.16S

$$

CAZ039-040-070300-
VENTURA AND SANTA BARBARA COUNTY COAST


CITY           SKY/WX    TMP DP  RH WIND       PRES   REMARKS
CAMARILLO      CLEAR     69  27  20 NW10      30.01S
OXNARD AIRPORT CLEAR     67  35  30 NW13      30.02S
*POINT MUGU    CLEAR     69  35  28 NW10G18   30.03R
SBA APT/GOLETA CLEAR     61  53  75 SE6       30.02S
*SANTA BARBARA   N/A     71  41  33 CALM      30.10S
*VENTURA         N/A     73  28  19 W7        30.05S

$$

CAZ044-045-070300-
VENTURA COUNTY VALLEYS


CITY           SKY/WX    TMP DP  RH WIND       PRES   REMARKS
*SIMI VALLEY     N/A     74  25  16 NE3       29.98R
*OJAI            N/A     64  42  45 CALM      30.02R
*FILLMORE        N/A     75  37  25 CALM      29.92R

$$

CAZ053-070300-
VENTURA COUNTY MOUNTAINS


CITY           SKY/WX    TMP DP  RH WIND       PRES   REMARKS
*LOCKWOOD VLY    N/A     52  14  22 MISG        N/A
*ROSE VALLEY     N/A     63  27  25 MISG        N/A

$$

CAZ034-035-036-070300-
CENTRAL COAST AND SANTA YNEZ VALLEY


CITY           SKY/WX    TMP DP  RH WIND       PRES   REMARKS
SAN LUIS OBISP CLEAR     70  32  24 N7        30.06S
SANTA MARIA    CLEAR     76  23  14 N13       30.05R

CITY           SKY/WX    TMP DP  RH WIND       PRES   REMARKS
*CAL POLY SLO    N/A     73  37  27 NW9G25      N/A
*LOMPOC        CLEAR     66  43  42 W13G20    30.03S
*PISMO BEACH     N/A     76  31  19 W2        30.05F
*SANTA YNEZ    FAIR      73  25  16 E5        30.02S

$$

CAZ037-038-051-070300-
SAN LUIS OBISPO COUNTY INTERIOR AND CUYAMA VALLEY


CITY           SKY/WX    TMP DP  RH WIND       PRES   REMARKS
*CUYAMA          N/A     59  39  46 CALM      30.14R
PASO ROBLES    CLEAR     67  35  30 E8        30.12R

$$

CAZ032-033-061-070300-
SOUTHERN DESERTS


CITY           SKY/WX    TMP DP  RH WIND       PRES   REMARKS
BLYTHE         CLEAR     74  21  13 N12       29.99S
IMPERIAL       PTCLDY    75  28  17 N5        29.97S
PALM SPRINGS   PTCLDY    78  12   8 W3        30.04S
THERMAL        PTCLDY    77  16  10 N7        29.99R

$$

ELSEWHERE ACROSS THE WESTERN UNITED STATES AND MEXICO


CITY           SKY/WX    TMP DP  RH WIND       PRES   REMARKS
DENVER, CO     CLEAR     37  25  61 SE9       30.24R WCI  30
GRAND CANYON,  CLEAR     40  21  46 NE14      30.30S WCI  32
HONOLULU, HI   MOSUNNY   73  57  56 N16G23    29.88S
KAHULUI, MAUI  CLOUDY    70  63  78 NE12      29.89F
LAKE TAHOE, CA CLEAR     45  22  40 CALM      30.32S
LAS VEGAS, NV  CLEAR     67  13  12 SE5       30.12F
MAMMOTH LAKES, FAIR      48   1  14 CALM      30.33S
MEXICO CITY, M CLOUDY    61  45  55 NW17      30.35R
PHOENIX, AZ    CLEAR     76  14   9 SE6       29.97S
PORTLAND, OR   MOCLDY    57  39  51 NW7       30.31F
RENO, NV       PTCLDY    58   7  13 E9        30.30S
SALT LAKE CITY PTCLDY    46  31  55 N8        30.37S
SAN DIEGO, CA  CLEAR     74  28  18 N10       29.99R
SAN FRANCISCO, PTCLDY    64  43  46 W15       30.16S
SAN JOSE, CA   PTCLDY    66  42  41 NW12      30.15S
SEATTLE, WA    MOCLDY    53  35  50 N6        30.35F
TIJUANA, MEX   CLEAR     64  43  45 SW5       30.02R

$$

STATION/POSITION TIME  TEMP    WIND        PRES    VSBY  WAVE
                       AIR SEA DIR/SP/G                  HT/PER
                 (UTC) (F)     (DEG/KT/KT) (MB)    (MI)  (FT/S)
POINT ARGUELLO B NOT AVBL
WEST SANTA BARBA 0200   62 60  300/ 16/ 17 1016.0F         3/15
POINT CONCEPTION NOT AVBL
EAST SANTA BARBA NOT AVBL
SANTA MONICA BAY 0200   64 62  300/ 12/ 16 1016.1F         2/11



USA.gov is the U.S. government's official web portal to all federal, state and local government web resources and services.